Probability
0 0 0 0 0 0 0 0 0 0 0 0 0 0 0 0 0 0 0 0 0 0 0 0 0 0 0 0 0 0 0 0 0 0 0 0 0 0 0 0 0 0 0
0 0 0 0 0 0 0 0 0 0 0 0 0 0 0 0 0 0 0 0 0 0 0 0 0 0 0 0 0 0 0 0 0 0 0 0 0 0 0 0 0 0 0
0 0 0 0 0 0 0 0 0 0 0 0 0 0 0 0 0 0 0 0 0 0 0 0 0 0 0 0 0 0 0 0 0 0 0 0 0 0 0 0 0 0 0
0 0 0 0 0 0 0 0 0 0 0 0 0 0 0 0 0 0 0 0 0 0 0 0 0 0 0 0 0 0 0 0 0 0 0 0 0 0 0 0 0 0 0
0 0 0 0 0 0 0 0 0 0 0 0 0 0 0 0 0 0 0 0 0 0 0 0 0 0 0 0 0 0 0 0 0 0 0 0 0 0 0 0 0 0 0
0 0 0 0 0 0 0 0 0 0 0 0 0 0 0 0 0 0 0 0 0 0 0 0 0 0 0 0 0 0 0 0 0 0 0 0 0 0 0 0 0 0 0
0 0 0 0 0 0 0 0 0 0 0 0 0 0 0 0 0 0 0 0 0 0 0 0 0 0 0 0 0 0 0 0 0 0 0 0 0 0 0 0 0 0 0
0 0 0 0 0 0 0 0 0 0 0 0 0 0 0 0 0 0 0 0 0 0 0 0 0 0 0 0 0 0 0 0 0 0 0 0 0 0 0 0 0 0 0
0 0 0 0 0 0 0 0 0 0 0 0 0 0 0 0 0 0 0 0 0 0 0 0 0 0 0 0 0 0 0 0 0 0 0 0 0 0 0 0 0 0 0
0 0 0 0 0 0 0 0 0 0 0 0 0 0 0 0 0 0 0 0 0 0 0 0 0 0 0 0 0 0 0 0 0 0 0 0 0 0 0 0 0 0 0
0 0 0 0 0 0 0 0 0 0 0 0 0 0 0 0 0 0 0 0 0 0 0 0 0 0 0 0 0 0 0 0 0 0 0 0 0 0 0 0 0 0 0
0 0 0 0 0 0 0 0 0 0 0 0 0 0 0 0 0 0 0 0 0 0 0 0 0 0 0 0 0 0 0 0 0 0 0 0 0 0 0 0 0 0 0
0 0 0 0 0 0 0 0 0 0 0 0 0 0 0 0 0 0 0 0 0 0 0 0 0 0 0 0 0 0 0 0 0 0 0 0 0 0 0 0 0 0 0
0 0 0 0 0 0 0 0 0 0 0 0 0 0 0 0 0 0 0 0 0 0 0 0 0 0 0 0 0 0 0 0 0 0 0 0 0 0 0 0 0 0 0
0 0 0 0 0 0 0 0 0 0 0 0 0 0 0 0 0 0 0 0 0 0 0 0 0 0 0 0 0 0 0 0 0 0 0 0 0 0 0 0 0 0 0
0 0 0 0 0 0 0 0 0 0 0 0 0 0 0 0 0 0 0 0 0 0 0 0 0 0 0 0 0 0 0 0 0 0 0 0 0 0 0 0 0 0 0
0 0 0 0 0 0 0 0 0 0 0 0 0 0 0 0 0 0 0 0 0 0 0 0 0 0 0 0 0 0 0 0 0 0 0 0 0 0 0 0 0 0 0
0 0 0 0 0 0 0 0 0 0 0 0 0 0 0 0 0 0 0 0 0 0 0 0 0 0 0 0 0 0 0 0 0 0 0 0 0 0 0 0 0 0 0
0 0 0 0 0 0 0 0 0 0 0 0 0 0 0 0 0 0 0 0 0 0 0 0 0 0 0 0 0 0 0 0 0 0 0 0 0 0 0 0 0 0 0
0 0 0 0 0 0 0 0 0 0 0 0 0 0 0 0 0 0 0 0 0 0 0 0 0 0 0 0 0 0 0 0 0 0 0 0 0 0 0 0 0 0 0
0 0 0 0 0 0 0 0 0 0 0 0 0 0 0 0 0 0 0 0 0 0 0 0 0 0 0 0 0 0 0 0 0 0 0 0 0 0 0 0 0 0 0
0 0 0 0 0 0 0 0 0 0 0 0 0 0 0 0 0 0 0 0 0 0 0 0 0 0 0 0 0 0 0 0 0 0 0 0 0 0 0 0 0 0 0
0 0 0 0 0 0 0 0 0 0 0 0 0 0 0 0 0 0 0 0 0 0 0 0 0 0 0 0 0 0 0 0 0 0 0 0 0 0 0 0 0 0 0
0 0 0 0 0 0 0 0 0 0 0 0 0 0 0 0 0 0 0 0 0 0 0 0 0 0 0 0 0 0 0 0 0 0 0 0 0 0 0 0 0 0 0
0 0 0 0 0 0 0 0 0 0 0 0 0 0 0 0 0 0 0 0 0 0 0 0 0 0 0 0 0 0 0 0 0 0 0 0 0 0 0 0 0 0 0
0 0 0 0 0 0 0 0 0 0 0 0 0 0 0 0 0 0 0 0 0 0 0 0 0 0 0 0 0 0 0 0 0 0 0 0 0 0 0 0 0 0 0
Height
5626 5628 5630 5632 5634 5637 5640 5643 5645 5648 5651 5654 5656 5659 5661 5663 5664 5665 5666 5667 5668 5669 5670 5670 5670 5670 5669 5669 5668 5667 5666 5665 5664 5663 5661 5658 5656 5654 5651 5649 5647 5644 5642
5617 5618 5621 5623 5625 5628 5630 5633 5636 5639 5642 5644 5647 5649 5651 5652 5653 5655 5656 5657 5658 5658 5659 5659 5659 5658 5658 5657 5657 5656 5654 5653 5651 5650 5649 5647 5645 5642 5640 5638 5636 5634 5631
5608 5610 5612 5614 5616 5618 5621 5624 5626 5629 5632 5634 5636 5638 5640 5642 5643 5644 5645 5646 5647 5647 5647 5647 5647 5647 5647 5646 5645 5644 5643 5641 5639 5638 5637 5635 5633 5631 5629 5627 5625 5623 5621
5600 5601 5603 5605 5607 5610 5612 5614 5617 5620 5622 5624 5626 5628 5630 5631 5632 5633 5634 5635 5635 5636 5636 5636 5636 5636 5635 5634 5633 5632 5630 5629 5627 5626 5625 5623 5621 5619 5617 5616 5614 5612 5610
5591 5593 5595 5596 5598 5600 5602 5605 5608 5610 5612 5614 5616 5618 5619 5620 5621 5622 5623 5623 5624 5624 5624 5624 5624 5623 5623 5622 5621 5619 5618 5617 5615 5614 5613 5611 5610 5607 5606 5604 5603 5601 5599
5582 5583 5585 5587 5589 5590 5593 5595 5598 5600 5602 5604 5606 5607 5609 5610 5611 5611 5611 5612 5612 5612 5612 5612 5611 5611 5610 5609 5608 5607 5606 5604 5603 5602 5601 5600 5598 5596 5594 5593 5591 5590 5589
5573 5574 5576 5578 5579 5581 5583 5586 5588 5590 5592 5594 5596 5597 5598 5599 5599 5600 5600 5601 5601 5600 5600 5600 5599 5598 5598 5597 5596 5595 5593 5592 5591 5591 5590 5588 5587 5586 5584 5582 5580 5579 5577
5564 5565 5567 5569 5571 5572 5574 5576 5578 5580 5582 5583 5585 5586 5587 5588 5588 5589 5589 5589 5589 5589 5588 5588 5587 5586 5585 5585 5584 5583 5582 5581 5580 5579 5579 5577 5576 5574 5573 5572 5570 5568 5567
5555 5557 5558 5560 5562 5563 5565 5567 5568 5570 5572 5573 5574 5575 5576 5577 5577 5577 5577 5577 5578 5577 5577 5576 5575 5574 5574 5573 5573 5572 5571 5570 5569 5568 5567 5566 5565 5564 5563 5561 5560 5558 5557
5546 5547 5549 5551 5552 5554 5556 5557 5559 5560 5561 5562 5564 5565 5566 5566 5566 5566 5566 5566 5567 5566 5565 5564 5563 5563 5562 5561 5561 5561 5560 5559 5558 5558 5557 5556 5555 5554 5552 5551 5549 5548 5546
5536 5538 5540 5541 5543 5544 5546 5547 5549 5550 5552 5553 5554 5555 5555 5555 5555 5555 5555 5555 5555 5554 5554 5553 5552 5552 5551 5550 5550 5550 5549 5549 5548 5547 5546 5546 5545 5543 5542 5541 5539 5538 5536
5527 5528 5530 5532 5533 5535 5536 5538 5539 5540 5541 5542 5543 5544 5544 5544 5544 5544 5544 5543 5543 5543 5542 5542 5541 5541 5540 5540 5540 5539 5539 5538 5538 5537 5536 5536 5535 5533 5532 5531 5529 5528 5527
5518 5519 5521 5522 5524 5525 5526 5528 5529 5530 5531 5532 5533 5533 5534 5534 5533 5533 5533 5532 5532 5532 5531 5531 5531 5530 5530 5530 5530 5529 5529 5528 5527 5527 5526 5525 5525 5523 5522 5522 5520 5519 5518
5509 5510 5511 5513 5514 5515 5516 5518 5519 5520 5521 5522 5522 5523 5523 5524 5523 5523 5522 5522 5522 5521 5521 5521 5521 5520 5520 5520 5520 5520 5519 5518 5517 5517 5516 5516 5515 5514 5513 5512 5511 5510 5510
5500 5501 5502 5503 5505 5505 5506 5507 5509 5510 5511 5512 5513 5513 5514 5514 5514 5513 5512 5512 5512 5512 5512 5512 5512 5512 5512 5512 5511 5510 5509 5508 5508 5507 5506 5506 5505 5505 5504 5503 5503 5502 5501
5491 5492 5493 5494 5495 5496 5497 5498 5498 5500 5501 5502 5502 5503 5503 5503 5503 5503 5503 5503 5503 5503 5503 5504 5504 5504 5503 5503 5502 5501 5500 5499 5498 5498 5497 5496 5496 5496 5495 5495 5494 5494 5493
5482 5483 5484 5485 5486 5487 5487 5489 5490 5491 5491 5492 5492 5493 5493 5493 5493 5493 5493 5493 5494 5494 5494 5495 5495 5495 5495 5494 5493 5492 5491 5490 5489 5489 5488 5488 5487 5487 5487 5486 5486 5485 5484
5473 5474 5475 5476 5477 5478 5478 5479 5480 5482 5483 5483 5483 5483 5483 5483 5483 5483 5484 5484 5485 5485 5485 5486 5486 5486 5486 5485 5484 5484 5483 5482 5482 5481 5480 5479 5479 5479 5479 5478 5478 5477 5476
5464 5465 5466 5467 5468 5469 5469 5470 5471 5472 5473 5473 5474 5474 5474 5474 5474 5474 5474 5475 5476 5476 5477 5477 5477 5477 5477 5476 5476 5475 5475 5475 5474 5473 5472 5472 5471 5471 5471 5470 5470 5469 5469
5456 5457 5458 5459 5460 5460 5461 5461 5462 5463 5463 5463 5464 5464 5464 5464 5465 5465 5465 5466 5466 5467 5467 5468 5468 5468 5468 5468 5468 5468 5467 5467 5466 5466 5465 5464 5464 5464 5463 5463 5463 5462 5462
5448 5449 5450 5451 5451 5451 5452 5452 5453 5453 5454 5454 5455 5455 5455 5455 5455 5456 5456 5457 5457 5458 5458 5459 5459 5459 5460 5460 5460 5460 5460 5460 5459 5458 5458 5457 5457 5457 5456 5456 5455 5455 5454
5440 5441 5441 5442 5442 5443 5443 5443 5444 5444 5445 5445 5445 5446 5446 5446 5447 5447 5447 5448 5448 5449 5449 5450 5451 5451 5452 5452 5453 5453 5453 5452 5452 5451 5451 5450 5450 5450 5449 5449 5448 5448 5447
5432 5432 5433 5433 5433 5434 5434 5435 5435 5436 5436 5436 5436 5437 5437 5438 5438 5438 5439 5439 5440 5440 5441 5442 5443 5444 5444 5445 5445 5446 5446 5445 5445 5444 5444 5443 5443 5443 5442 5442 5441 5441 5441
5423 5424 5424 5424 5425 5425 5426 5426 5427 5427 5427 5427 5428 5428 5429 5429 5430 5430 5431 5431 5431 5432 5433 5434 5435 5436 5437 5437 5438 5438 5438 5438 5438 5437 5437 5436 5436 5436 5435 5435 5435 5434 5434
5415 5415 5415 5416 5416 5417 5417 5418 5418 5419 5419 5419 5419 5420 5421 5421 5422 5422 5422 5423 5424 5425 5425 5426 5427 5428 5429 5430 5431 5431 5431 5431 5431 5431 5430 5430 5430 5429 5429 5429 5429 5429 5428
5407 5407 5407 5407 5408 5408 5409 5410 5410 5411 5411 5411 5412 5412 5413 5413 5414 5414 5415 5416 5416 5417 5418 5419 5420 5421 5422 5423 5423 5424 5424 5424 5424 5424 5424 5424 5423 5423 5423 5423 5423 5423 5423
Wind_Speed
34 35 36 37 38 38 39 38 38 38 38 39 39 40 40 41 41 41 41 41 41 41 42 42 43 43 43 43 44 44 45 44 44 44 43 42 43 43 44 44 43 42 41
33 34 36 37 37 37 38 38 37 38 38 38 40 40 40 40 41 41 41 41 41 41 42 42 42 43 43 44 44 45 45 45 45 44 43 42 42 43 43 43 42 41 41
32 33 34 35 36 36 36 36 37 38 38 39 39 39 40 40 41 41 41 41 41 41 41 41 42 43 43 44 44 45 45 46 45 44 43 42 42 42 41 41 40 40 39
33 33 33 33 34 34 35 36 36 37 38 38 39 39 40 41 41 41 41 40 41 41 42 42 43 43 43 44 44 45 46 46 45 44 43 43 43 42 41 41 40 40 39
33 33 33 33 33 34 34 35 36 36 36 37 38 38 39 40 41 41 41 41 42 42 42 43 43 43 43 43 44 45 45 45 45 44 43 43 42 41 41 41 40 39 39
33 33 33 33 33 34 34 34 35 36 36 36 37 37 38 40 40 40 40 41 42 42 42 42 42 42 43 44 44 44 45 44 43 42 42 42 41 40 40 40 39 38 38
33 34 33 33 34 34 34 35 35 35 36 37 38 37 38 39 39 39 40 41 41 42 42 42 42 42 43 44 44 43 43 42 41 41 41 40 39 38 38 38 38 38 37
34 34 34 33 34 34 34 35 35 35 36 37 37 37 37 37 38 38 39 40 40 41 41 42 42 42 42 42 42 41 41 40 40 39 39 38 37 37 37 37 37 37 37
33 33 33 33 33 34 34 35 35 35 35 36 36 35 35 35 36 37 38 39 39 40 41 41 41 40 40 40 40 40 39 39 38 38 37 37 36 36 36 36 36 36 36
32 33 32 33 33 34 34 34 34 34 35 36 36 36 35 35 36 36 37 38 38 39 39 39 39 38 38 38 39 38 37 37 37 37 36 36 35 35 35 35 36 36 35
32 32 33 33 33 34 34 34 34 34 35 35 36 35 35 36 36 37 37 38 37 37 37 37 37 36 36 36 37 36 35 36 36 35 35 35 34 35 35 35 35 35 34
30 31 31 32 32 32 33 33 34 34 34 34 34 35 35 36 36 36 36 37 37 36 36 35 35 35 35 35 35 35 35 35 35 34 34 34 34 35 35 35 34 34 33
30 30 30 31 31 32 32 34 34 34 34 33 33 33 33 33 34 35 35 35 35 35 34 34 33 33 33 33 33 33 34 35 34 34 33 33 33 33 33 33 32 32 31
29 30 30 30 30 31 32 33 33 33 33 32 32 32 32 32 32 32 32 33 33 32 31 31 31 31 31 31 32 33 33 33 33 33 33 33 32 32 31 31 30 30 30
29 29 29 30 30 31 32 32 32 31 31 31 31 31 31 31 31 31 31 30 30 30 29 29 30 30 30 31 31 32 32 33 32 31 32 31 31 30 30 30 29 29 29
28 28 28 28 29 30 30 31 30 30 30 30 31 31 31 31 31 31 30 30 29 30 30 30 30 30 30 30 30 30 31 31 30 30 30 29 29 29 29 29 29 29 29
27 27 27 28 28 28 29 29 30 30 30 30 30 30 30 31 31 31 30 30 30 30 30 30 30 30 30 29 28 28 27 27 27 28 28 28 28 28 28 28 28 28 27
26 26 27 27 28 28 28 29 29 30 30 30 29 29 30 30 30 30 30 30 30 30 30 29 30 29 29 28 27 27 26 26 26 26 26 26 27 27 27 27 26 26 26
25 25 25 26 27 27 28 29 29 29 30 30 29 29 29 29 29 29 29 29 29 29 29 28 28 28 28 28 27 26 26 26 26 25 25 25 25 25 25 25 25 25 25
25 25 25 26 26 27 27 28 28 28 28 29 29 28 28 28 29 29 29 29 29 28 28 28 28 28 28 27 26 25 25 25 25 24 24 24 24 24 24 24 24 24 24
25 25 26 26 26 27 26 26 27 27 27 28 28 28 28 28 28 28 28 28 28 28 28 28 28 27 27 26 25 24 24 24 23 23 23 23 23 23 23 23 23 23 23
25 26 26 26 27 27 26 26 26 26 26 27 27 27 27 27 27 27 27 27 27 27 27 27 26 26 25 25 25 24 23 22 22 22 23 23 23 23 23 23 23 23 22
25 26 26 26 26 26 26 25 25 25 25 26 26 27 26 26 26 26 26 25 26 26 26 26 25 25 25 25 24 24 22 22 21 22 22 22 22 22 22 22 22 22 21
25 26 26 26 26 26 26 25 24 24 24 24 25 25 25 25 24 25 25 25 24 24 24 24 25 24 24 23 23 22 22 22 21 21 21 21 21 21 21 20 20 20 20
24 24 25 25 25 25 25 24 23 23 23 23 23 23 24 24 24 24 24 23 23 23 23 23 23 22 22 22 22 22 22 22 21 21 21 21 20 20 19 19 19 19 18
23 24 24 25 24 24 23 23 22 22 22 22 22 23 23 23 23 23 22 22 23 23 22 22 22 21 21 21 21 21 21 21 21 21 20 20 20 19 19 19 19 18 18
Wind_Direction
251 251 250 250 250 250 248 248 248 250 250 250 252 254 256 258 259 261 263 264 265 267 268 269 269 269 270 273 274 276 277 278 280 280 279 280 280 281 282 282 282 281 281
251 251 251 250 250 251 249 249 249 250 251 252 254 255 257 258 260 262 263 264 266 267 268 270 270 271 272 273 275 277 277 279 280 280 280 280 280 281 282 282 281 280 281
250 250 251 250 251 252 251 250 251 251 251 252 253 254 257 258 260 262 263 265 266 267 269 270 271 272 272 274 275 277 278 279 279 280 279 278 279 281 282 282 282 281 281
250 251 250 250 251 251 252 251 251 252 253 254 253 255 257 259 261 262 263 265 266 267 268 269 270 271 272 274 276 278 279 279 279 279 279 279 280 281 282 281 281 280 280
250 250 251 252 252 252 252 253 253 254 255 255 256 256 257 259 260 262 263 265 265 267 269 270 270 269 271 274 275 277 278 278 279 279 279 279 279 280 281 281 280 279 279
250 251 252 252 253 252 252 252 253 254 255 255 257 258 259 260 261 261 263 265 266 267 269 269 271 270 272 273 275 277 278 277 278 278 278 279 279 279 279 280 280 279 280
250 251 253 254 254 253 253 253 253 253 254 256 257 259 260 261 262 262 263 264 266 267 269 269 270 270 271 273 275 276 277 276 276 277 277 278 278 278 279 279 279 280 280
252 253 254 254 255 254 254 254 254 255 256 258 259 260 261 262 262 263 265 265 266 267 269 270 270 270 271 272 274 275 276 276 275 276 277 277 276 276 277 277 278 279 280
253 254 254 255 255 254 254 255 255 255 257 258 259 260 261 262 263 265 265 266 267 268 270 271 270 270 271 272 273 274 274 274 274 275 276 275 275 276 276 276 277 279 280
254 254 255 256 256 255 255 255 256 256 258 260 259 260 261 263 264 265 266 267 269 271 271 271 270 270 272 273 273 273 273 273 274 275 274 274 275 275 275 276 278 279 280
255 254 254 255 255 256 255 255 255 257 260 260 260 260 261 263 264 265 266 268 269 270 270 270 269 270 272 273 272 272 272 272 274 274 274 273 273 274 274 276 277 278 279
255 255 254 255 256 255 254 255 256 259 260 261 260 261 262 263 265 266 266 267 269 270 270 269 269 270 271 271 272 271 272 272 273 274 273 272 272 273 274 276 277 278 279
256 256 257 257 257 256 256 256 257 259 260 261 262 262 263 263 265 266 266 267 268 270 269 268 268 270 271 271 271 271 273 274 273 274 273 272 273 274 276 277 278 279 279
257 257 256 256 257 258 257 257 258 259 261 262 262 263 264 265 266 267 267 267 268 268 269 268 268 269 270 273 273 273 274 275 274 274 273 274 274 275 276 276 277 279 279
257 257 257 257 259 259 259 259 258 259 261 262 263 264 265 266 267 267 267 267 267 267 267 267 268 269 272 274 275 275 275 275 274 274 274 273 272 273 274 275 276 277 278
257 257 258 258 259 260 260 259 258 258 260 262 264 264 265 266 266 266 266 265 265 266 266 267 268 269 272 275 276 277 276 275 273 272 272 271 271 272 273 274 274 275 277
258 258 258 259 260 261 260 259 259 260 261 263 264 265 266 267 267 265 264 263 264 265 266 267 268 270 272 274 275 276 276 275 274 273 272 271 271 272 273 274 275 275 277
259 259 259 259 260 261 261 260 260 261 262 262 264 266 267 267 266 264 263 263 263 264 266 267 268 269 271 273 274 274 274 274 275 275 274 274 272 271 273 274 275 276 277
258 259 259 259 261 262 262 261 261 262 263 263 264 264 265 265 265 264 264 264 263 264 264 265 267 268 269 271 272 273 272 273 274 275 274 273 272 272 273 273 274 276 277
258 260 260 260 262 263 263 262 262 263 264 265 264 264 265 265 266 266 265 265 264 262 262 263 265 266 267 269 271 272 272 273 273 274 273 273 272 273 273 274 274 275 276
258 260 261 262 264 264 263 262 263 264 265 265 264 264 266 266 265 265 264 264 264 262 262 263 264 265 265 267 268 271 272 272 273 273 273 272 273 274 274 274 274 274 276
260 261 262 263 264 264 263 263 264 266 267 265 263 263 264 265 265 264 264 264 263 262 261 262 263 264 264 265 267 270 272 272 273 274 273 272 272 274 275 274 273 273 274
261 262 263 264 264 263 263 264 266 268 267 265 264 264 263 264 263 263 263 263 263 262 261 261 262 263 264 264 266 269 270 270 272 274 273 272 273 275 275 274 272 272 272
263 264 264 265 264 263 264 266 267 269 268 266 265 264 263 263 263 263 263 263 262 261 260 261 261 262 262 262 265 266 268 270 272 273 273 273 273 274 272 271 271 272 272
265 266 265 265 264 263 263 264 266 268 267 266 265 264 263 262 262 263 262 260 261 260 259 260 259 260 260 261 263 265 267 270 273 274 273 273 273 273 270 268 268 270 272
267 267 266 266 264 263 262 263 265 266 266 265 264 264 263 262 261 260 259 259 260 259 257 256 256 257 259 261 262 263 267 271 273 272 271 272 272 270 268 267 268 269 271